Вернуться в каталог

STARLINK-4451

АктивенСвязьPO
NORAD 53492·PAYLOAD·🇺🇸 United States

Запущен Aug 12, 2022 с Vandenberg Space Force Base

Loading…

Ближайшие Пролёты (ближайшие 24 часа)

TLE

СвежийSource: CelesTrak SupGP

Эпоха: Sep 14, 2026, 21:34 UTC

1 53492C 22099AD  26257.89909722  .01011100  00000+0  68172-3 0  2570
2 53492  97.5965  27.7859 0005681 323.5583  31.2181 16.16300548    14

Отслеживайте STARLINK-4451 в реальном времени с AllMySat

Download on the App Store